Location: Newark
(25.0000°N, 73.5000°E)
Time: 18:59:51
(UTC+00:00)

Vanguard 1 Rocket - All Passes

Search period start: 04 March 2021 00:00
Search period end: 14 March 2021 00:00
Orbit: 654 x 4223 km, 34.3° (Epoch: 03 March)

Date Brightness Start Highest point End Pass type
(mag) Time Alt. Az. Time Alt. Az. Time Alt. Az.
04 Mar - 02:31:51 10° WNW 02:53:37 66° SW 03:04:58 10° SE daylight
04 Mar - 05:11:31 10° W 05:18:42 15° WSW 05:24:05 10° SSW daylight
04 Mar - 15:19:16 10° SSE 15:28:30 20° SE 15:41:21 10° E visible
04 Mar - 17:39:29 10° SW 17:55:44 65° SE 18:21:19 10° ENE visible
04 Mar - 20:06:49 10° WSW 20:29:05 76° NNW 20:55:00 10° ENE visible
04 Mar - 22:39:42 10° WNW 23:06:14 68° N 23:26:22 10° E visible
05 Mar - 01:15:12 10° WNW 01:40:19 87° SSW 01:54:11 10° ESE daylight
05 Mar - 03:52:09 10° WNW 04:07:47 33° SW 04:16:58 10° S daylight
05 Mar - 16:29:11 10° SSW 16:42:32 45° SE 17:04:29 10° ENE visible
05 Mar - 18:53:54 10° WSW 19:12:58 88° NNW 19:39:55 10° ENE visible
05 Mar - 21:24:22 10° W 21:49:15 67° N 22:12:41 10° E visible
05 Mar - 23:58:49 10° WNW 00:25:35 78° NNE 00:42:29 10° ESE visible
06 Mar - 02:34:41 10° WNW 02:56:02 55° SW 03:07:38 10° SSE daylight
06 Mar - 15:20:21 10° S 15:30:30 26° SE 15:46:03 10° E visible
06 Mar - 17:42:09 10° SW 17:58:06 75° SE 18:24:07 10° ENE visible
06 Mar - 20:10:07 10° W 20:32:11 71° NNW 20:58:07 10° ENE visible
06 Mar - 22:42:55 10° WNW 23:09:31 70° N 23:29:47 10° E visible
07 Mar - 01:17:55 10° WNW 01:43:00 77° SSW 01:57:10 10° SE daylight
07 Mar - 03:55:59 10° W 04:09:52 26° SW 04:18:47 10° S daylight
07 Mar - 14:16:07 10° SE 14:19:10 11° ESE 14:22:36 10° ESE visible
07 Mar - 16:31:30 10° SSW 16:44:39 55° SE 17:07:32 10° ENE visible
07 Mar - 18:57:02 10° WSW 19:15:50 80° NNW 19:42:49 10° ENE visible
07 Mar - 21:27:44 10° W 21:52:34 67° N 22:16:03 10° E visible
08 Mar - 00:01:42 10° WNW 00:28:31 86° NNE 00:45:40 10° ESE visible
08 Mar - 02:37:41 10° WNW 02:58:15 45° SW 03:10:04 10° SSE daylight
08 Mar - 15:22:04 10° S 15:32:31 34° SE 15:49:54 10° ENE visible
08 Mar - 17:45:03 10° WSW 18:00:41 85° SSE 18:26:52 10° ENE visible
08 Mar - 20:13:29 10° W 20:35:26 68° N 21:01:20 10° ENE visible
08 Mar - 22:46:02 10° WNW 23:12:42 75° NNE 23:33:07 10° ESE visible
09 Mar - 01:20:41 10° WNW 01:45:28 67° SW 01:59:56 10° SE daylight
09 Mar - 04:00:38 10° W 04:11:56 19° SW 04:19:56 10° SSW daylight
09 Mar - 14:14:47 10° SSE 14:21:17 17° ESE 14:30:08 10° E visible
09 Mar - 16:34:06 10° SW 16:46:57 65° SE 17:10:23 10° ENE visible
09 Mar - 19:00:18 10° W 19:18:52 74° NNW 19:45:47 10° ENE visible
09 Mar - 21:31:03 10° WNW 21:55:53 69° N 22:19:26 10° E visible
10 Mar - 00:04:30 10° WNW 00:31:16 86° SSW 00:48:42 10° ESE visible
10 Mar - 02:41:00 10° WNW 03:00:19 36° SW 03:12:11 10° SSE daylight
10 Mar - 15:24:12 10° SSW 15:34:38 43° SE 15:53:16 10° ENE visible
10 Mar - 17:48:07 10° WSW 18:03:28 86° NNW 18:29:39 10° ENE visible
10 Mar - 20:16:54 10° W 20:38:45 67° N 21:04:38 10° E visible
10 Mar - 22:49:02 10° WNW 23:15:42 80° NNE 23:36:21 10° ESE visible
11 Mar - 01:23:32 10° WNW 01:47:44 56° SW 02:02:29 10° SSE daylight
11 Mar - 04:06:58 10° W 04:13:59 13° WSW 04:19:42 10° SSW daylight
11 Mar - 14:15:47 10° S 14:23:22 23° SE 14:35:02 10° E visible
11 Mar - 16:36:55 10° SW 16:49:28 76° SSE 17:13:07 10° ENE visible
11 Mar - 19:03:40 10° W 19:22:05 70° N 19:48:52 10° ENE visible
11 Mar - 21:34:17 10° WNW 21:59:06 72° NNE 22:22:47 10° E visible
12 Mar - 00:07:17 10° WNW 00:33:48 76° SW 00:51:33 10° SE visible
12 Mar - 02:44:46 10° WNW 03:02:17 29° SW 03:13:54 10° S daylight
12 Mar - 15:26:39 10° SSW 15:36:54 53° SE 15:56:18 10° ENE visible
12 Mar - 17:51:20 10° WSW 18:06:28 78° NNW 18:32:29 10° ENE visible
12 Mar - 20:20:17 10° WNW 20:42:04 67° N 21:07:58 10° E visible
12 Mar - 22:51:58 10° WNW 23:18:31 88° NNE 23:39:26 10° ESE visible
13 Mar - 01:26:34 10° WNW 01:49:48 47° SW 02:04:46 10° SSE daylight
13 Mar - 14:17:31 10° S 14:25:31 30° SE 14:38:58 10° ENE visible
13 Mar - 16:39:54 10° WSW 16:52:13 87° SSE 17:15:49 10° ENE visible
13 Mar - 19:07:05 10° W 19:25:22 67° N 19:52:03 10° ENE visible
13 Mar - 21:37:25 10° WNW 22:02:11 76° NNE 22:26:03 10° ESE visible
